BRO-3

导读

BRO-3是法国发射的一颗卫星,于北京时间2020年11月20日08:00发射升空。作为法国航天领域的小型航天项目组成部分,该卫星延续了法国在商业航天、在轨技术探索方向的布局,旨在验证相关空间技术,为后续欧洲乃至法国的在轨服务、小型卫星任务积累运行经验,推动欧洲低地球轨道空间技术应用发展。

基本信息
目录编号:
46943
目录名称:
BRO-3
国际标识:
2020-085Q
轨道中心:
EARTH
卫星名称:
BRO-3
卫星全名:
--
卫星状态:
已陨落 最后检测时间 2024-01-23
发射日期:
2020-11-20 UTC
国别 :
法国 (FR)
星等 :
--
轨道信息
数据来源 国际轨道数据
星历时间: 2024-01-19T20:03:17+0800
轨道信息已过期906天
半长轴: 6539.9km
偏心率: 0.0009637
轨道倾角: 97.430°
近地点辐角 292.011°
升交点赤经 179.785°
平近点角 68.016°
近地点: 155.462km
远地点: 168.068km
周期: 87.724分钟
每日圈数: 16.415199
详细信息
使用方式:
暂无